When you browse on this site, cookies collect data to enhance your experience and personalize the content and advertising you see.
Visit our Privacy Policy to learn more. By continuing to use the site, you agree to this use of cookies and data.
  • In Lithuania
  • List of Countries
  • For 7 days
  • Water Temperature
  • Satellite Maps
  • Weather Map
  • Weather Widgets
  • user-avatar
    Login

    Hourly Weather Djelfa

    Today, 20 February, Wednesday

    Time Temperature Precipitation Wind Pressure Humidity
    00:00 +6°C° 0 mm 1 mps 664 mmHg 50%
    01:00 +6°C° 0 mm 1 mps 664 mmHg 50%
    02:00 +6°C° 0 mm 1 mps 664 mmHg 51%
    03:00 +5°C° 0 mm 1 mps 663 mmHg 52%
    04:00 +5°C° 0 mm 1 mps 663 mmHg 50%
    05:00 +6°C° 0 mm 1 mps 664 mmHg 48%
    06:00 +5°C° 0 mm 2 mps 664 mmHg 46%
    07:00 +6°C° 0 mm 2 mps 664 mmHg 42%
    08:00 +7°C° 0 mm 2 mps 665 mmHg 38%
    09:00 +9°C° 0 mm 2 mps 666 mmHg 34%
    10:00 +10°C° 0 mm 3 mps 666 mmHg 31%
    11:00 +11°C° 0 mm 3 mps 666 mmHg 27%
    12:00 +12°C° 0 mm 3 mps 666 mmHg 24%
    13:00 +12°C° 0 mm 3 mps 666 mmHg 23%
    14:00 +13°C° 0 mm 3 mps 666 mmHg 22%
    15:00 +13°C° 0 mm 3 mps 666 mmHg 22%
    16:00 +12°C° 0 mm 3 mps 666 mmHg 23%
    17:00 +11°C° 0 mm 3 mps 666 mmHg 25%
    18:00 +10°C° 0 mm 3 mps 666 mmHg 27%
    19:00 +10°C° 0 mm 2 mps 666 mmHg 28%
    20:00 +9°C° 0 mm 2 mps 667 mmHg 30%
    21:00 +9°C° 0 mm 2 mps 667 mmHg 31%
    22:00 +9°C° 0 mm 1 mps 667 mmHg 30%
    23:00 +9°C° 0 mm 1 mps 667 mmHg 30%

    Tomorrow, 21 February, Thursday

    Time Temperature Precipitation Wind Pressure Humidity
    00:00 +9°C° 0 mm 1 mps 668 mmHg 29%
    01:00 +9°C° 0 mm 1 mps 668 mmHg 32%
    02:00 +9°C° 0 mm 1 mps 668 mmHg 35%
    03:00 +8°C° 0 mm 2 mps 667 mmHg 38%
    04:00 +8°C° 0 mm 1 mps 667 mmHg 41%
    05:00 +7°C° 0 mm 1 mps 667 mmHg 45%
    06:00 +5°C° 0 mm 0 mps 667 mmHg 49%
    07:00 +6°C° 0 mm 0 mps 668 mmHg 44%
    08:00 +8°C° 0 mm 0 mps 669 mmHg 40%
    09:00 +9°C° 0 mm 0 mps 670 mmHg 35%
    10:00 +11°C° 0 mm 1 mps 670 mmHg 32%
    11:00 +12°C° 0 mm 1 mps 670 mmHg 29%
    12:00 +13°C° 0 mm 1 mps 670 mmHg 26%
    13:00 +14°C° 0 mm 1 mps 670 mmHg 26%
    14:00 +14°C° 0 mm 2 mps 670 mmHg 27%
    15:00 +14°C° 0 mm 3 mps 670 mmHg 27%
    16:00 +13°C° 0 mm 3 mps 670 mmHg 31%
    17:00 +12°C° 0 mm 4 mps 670 mmHg 35%
    18:00 +11°C° 0 mm 4 mps 670 mmHg 40%
    19:00 +10°C° 0 mm 3 mps 670 mmHg 43%
    20:00 +9°C° 0 mm 2 mps 670 mmHg 47%
    21:00 +9°C° 0 mm 2 mps 671 mmHg 50%
    22:00 +9°C° 0 mm 1 mps 671 mmHg 51%
    23:00 +9°C° 0 mm 1 mps 670 mmHg 51%

    Day after tomorrow, 22 February, Friday

    Time Temperature Precipitation Wind Pressure Humidity
    00:00 +8°C° 0 mm 1 mps 670 mmHg 52%
    01:00 +8°C° 0 mm 1 mps 670 mmHg 52%
    02:00 +7°C° 0 mm 1 mps 670 mmHg 52%
    03:00 +7°C° 0 mm 1 mps 670 mmHg 53%
    04:00 +6°C° 0 mm 1 mps 669 mmHg 54%
    05:00 +5°C° 0 mm 2 mps 669 mmHg 56%
    06:00 +5°C° 0 mm 2 mps 669 mmHg 58%
    07:00 +6°C° 0 mm 2 mps 670 mmHg 53%
    08:00 +8°C° 0 mm 3 mps 671 mmHg 48%
    09:00 +8°C° 0 mm 4 mps 671 mmHg 43%
    10:00 +11°C° 0 mm 4 mps 671 mmHg 36%
    11:00 +12°C° 0 mm 5 mps 672 mmHg 28%
    12:00 +13°C° 0 mm 5 mps 672 mmHg 20%
    13:00 +13°C° 0 mm 5 mps 671 mmHg 19%
    14:00 +14°C° 0 mm 5 mps 671 mmHg 18%
    15:00 +14°C° 0 mm 6 mps 670 mmHg 17%
    16:00 +13°C° 0 mm 5 mps 670 mmHg 19%
    17:00 +10°C° 0 mm 5 mps 669 mmHg 20%
    18:00 +10°C° 0 mm 4 mps 669 mmHg 22%
    19:00 +8°C° 0 mm 4 mps 669 mmHg 26%
    20:00 +7°C° 0 mm 4 mps 670 mmHg 29%
    21:00 +7°C° 0 mm 4 mps 670 mmHg 33%
    22:00 +6°C° 0 mm 4 mps 669 mmHg 36%
    23:00 +6°C° 0 mm 4 mps 669 mmHg 39%

    23 February, Saturday

    Time Temperature Precipitation Wind Pressure Humidity
    00:00 +5°C° 0 mm 4 mps 669 mmHg 42%
    01:00 +5°C° 0 mm 4 mps 669 mmHg 44%
    02:00 +4°C° 0 mm 4 mps 668 mmHg 47%
    03:00 +4°C° 0 mm 4 mps 668 mmHg 49%
    04:00 +3°C° 0 mm 4 mps 668 mmHg 50%
    05:00 +3°C° 0 mm 4 mps 668 mmHg 50%
    06:00 +3°C° 0 mm 4 mps 668 mmHg 51%
    07:00 +4°C° 0 mm 4 mps 669 mmHg 42%
    08:00 +6°C° 0 mm 5 mps 669 mmHg 33%
    09:00 +8°C° 0 mm 5 mps 670 mmHg 24%
    10:00 +9°C° 0 mm 6 mps 670 mmHg 22%
    11:00 +11°C° 0 mm 6 mps 670 mmHg 20%
    12:00 +12°C° 0 mm 7 mps 670 mmHg 18%
    13:00 +12°C° 0 mm 7 mps 670 mmHg 18%
    14:00 +14°C° 0 mm 7 mps 669 mmHg 18%
    15:00 +13°C° 0 mm 8 mps 669 mmHg 18%
    16:00 +12°C° 0 mm 7 mps 669 mmHg 22%
    17:00 +11°C° 0 mm 6 mps 669 mmHg 25%
    18:00 +10°C° 0 mm 6 mps 668 mmHg 29%
    19:00 +9°C° 0 mm 5 mps 669 mmHg 33%
    20:00 +8°C° 0 mm 4 mps 669 mmHg 37%
    21:00 +7°C° 0 mm 4 mps 669 mmHg 42%
    22:00 +6°C° 0 mm 4 mps 669 mmHg 43%
    23:00 +7°C° 0 mm 3 mps 669 mmHg 44%

    24 February, Sunday

    Time Temperature Precipitation Wind Pressure Humidity
    00:00 +5°C° 0 mm 3 mps 668 mmHg 46%
    01:00 +5°C° 0 mm 3 mps 668 mmHg 46%
    02:00 +5°C° 0 mm 3 mps 668 mmHg 46%
    03:00 +4°C° 0 mm 3 mps 667 mmHg 46%
    04:00 +4°C° 0 mm 3 mps 667 mmHg 47%
    05:00 +4°C° 0 mm 4 mps 667 mmHg 47%
    06:00 +3°C° 0 mm 4 mps 668 mmHg 47%
    07:00 +5°C° 0 mm 4 mps 668 mmHg 42%
    08:00 +7°C° 0 mm 5 mps 669 mmHg 37%
    09:00 +8°C° 0 mm 6 mps 669 mmHg 31%
    10:00 +10°C° 0 mm 6 mps 670 mmHg 29%
    11:00 +11°C° 0 mm 6 mps 670 mmHg 26%
    12:00 +12°C° 0 mm 7 mps 670 mmHg 24%
    13:00 +12°C° 0 mm 7 mps 669 mmHg 24%
    14:00 +14°C° 0 mm 7 mps 669 mmHg 24%
    15:00 +14°C° 0 mm 7 mps 669 mmHg 24%
    16:00 +13°C° 0 mm 6 mps 669 mmHg 27%
    17:00 +10°C° 0 mm 5 mps 669 mmHg 31%
    18:00 +9°C° 0 mm 5 mps 669 mmHg 34%
    19:00 +8°C° 0 mm 4 mps 669 mmHg 41%
    20:00 +8°C° 0 mm 4 mps 669 mmHg 47%
    21:00 +8°C° 0 mm 3 mps 669 mmHg 53%
    22:00 +7°C° 0 mm 3 mps 669 mmHg 59%
    23:00 +6°C° 0 mm 2 mps 669 mmHg 65%

    25 February, Monday

    Time Temperature Precipitation Wind Pressure Humidity
    00:00 +5°C° 0 mm 2 mps 669 mmHg 72%
    01:00 +5°C° 0 mm 2 mps 669 mmHg 75%
    02:00 +4°C° 0 mm 2 mps 669 mmHg 78%
    03:00 +4°C° 0 mm 2 mps 668 mmHg 82%
    04:00 +3°C° 0 mm 2 mps 668 mmHg 81%
    05:00 +4°C° 0 mm 1 mps 668 mmHg 81%
    06:00 +3°C° 0 mm 1 mps 668 mmHg 81%
    07:00 +4°C° 0 mm 2 mps 669 mmHg 68%
    08:00 +6°C° 0 mm 2 mps 669 mmHg 54%
    09:00 +8°C° 0 mm 2 mps 670 mmHg 41%
    10:00 +9°C° 0 mm 2 mps 670 mmHg 34%
    11:00 +11°C° 0 mm 3 mps 669 mmHg 26%
    12:00 +12°C° 0 mm 3 mps 669 mmHg 19%
    13:00 +12°C° 0 mm 4 mps 669 mmHg 18%
    14:00 +13°C° 0 mm 4 mps 669 mmHg 17%
    15:00 +13°C° 0 mm 5 mps 668 mmHg 16%
    16:00 +12°C° 0 mm 4 mps 668 mmHg 18%
    17:00 +11°C° 0 mm 4 mps 668 mmHg 20%
    18:00 +10°C° 0 mm 3 mps 668 mmHg 22%
    19:00 +9°C° 0 mm 3 mps 668 mmHg 25%
    20:00 +8°C° 0 mm 3 mps 668 mmHg 28%
    21:00 +7°C° 0 mm 2 mps 669 mmHg 31%
    22:00 +7°C° 0 mm 2 mps 668 mmHg 36%
    23:00 +6°C° 0 mm 2 mps 668 mmHg 41%
    Show more